Regional Weather Roundup
Issued by NWS Little Rock, AR

Home | Current Version | Previous Version | Text Only | Print | Product List | Glossary Off
Versions: 1 2 3 4 5 6 7 8 9 10 11 12 13 14 15 16 17 18 19 20 21 22 23 24 25 26 27 28 29 30 31 32 33 34 35 36 37 38 39 40 41 42 43 44 45 46 47 48 49 50

000
ASUS44 KLZK 010005
RWRLZK

WEATHER ROUNDUP FOR ARKANSAS
NATIONAL WEATHER SERVICE LITTLE ROCK AR
700 PM CDT FRI JUL 31 2015

NOTE: "FAIR" INDICATES FEW OR NO CLOUDS BELOW 12,000 FEET WITH NO
SIGNIFICANT WEATHER AND/OR OBSTRUCTIONS TO VISIBILITY.

ARZ001-003-010-029-010100-
NORTHWEST ARKANSAS

CITY           SKY/WX    TMP DP  RH WIND       PRES   REMARKS
FAYETTEVILLE   SUNNY     81  66  60 CALM      30.08F
6HR MIN TEMP:  81; 6HR MAX TEMP:  87;

FORT SMITH     MOSUNNY   88  59  37 NE7       30.02F HX  87
6HR MIN TEMP:  86; 6HR MAX TEMP:  93;

HARRISON       SUNNY     86  64  47 E3        30.09S HX  87
6HR MIN TEMP:  82; 6HR MAX TEMP:  90;

BENTONVILLE    MOSUNNY   84  57  39 W5        30.10F
6HR MIN TEMP:  82; 6HR MAX TEMP:  90;

ROGERS         MOSUNNY   87  59  38 S6        30.10F HX  86
6HR MIN TEMP:  86; 6HR MAX TEMP:  90;

SILOAM SPGS    SUNNY     82  59  44 CALM      30.08F
6HR MIN TEMP:  81; 6HR MAX TEMP:  88;

HIGHFILL       MOSUNNY   84  63  49 W3        30.09F HX  85
6HR MIN TEMP:  83; 6HR MAX TEMP:  88;

SPRINGDALE     SUNNY     86  61  42 N6        30.11F HX  86
$$

ARZ004-005-016-010100-
NORTH CENTRAL ARKANSAS

CITY           SKY/WX    TMP DP  RH WIND       PRES   REMARKS
BATESVILLE     SUNNY     88  66  48 CALM      30.03S HX  90
6HR MIN TEMP:  88; 6HR MAX TEMP:  91;

FLIPPIN        SUNNY     90  63  40 NE5       30.05S HX  90
6HR MIN TEMP:  88; 6HR MAX TEMP:  91;

MTN HOME       SUNNY     85  69  58 CALM      30.06F HX  89
6HR MIN TEMP:  85; 6HR MAX TEMP:  89;

$$

ARZ040-041-010100-
WEST CENTRAL ARKANSAS

CITY           SKY/WX    TMP DP  RH WIND       PRES   REMARKS
MENA           SUNNY     91  55  29 E3        30.05F HX  89
MOUNT IDA      SUNNY     89  63  41 CALM      30.02S HX  90
6HR MIN TEMP:  89; 6HR MAX TEMP:  95;

$$

ARZ009-017-025-026-028-010100-
NORTHEAST ARKANSAS

CITY           SKY/WX    TMP DP  RH WIND       PRES   REMARKS
JONESBORO      SUNNY     87  66  49 N3        30.02F HX  89
6HR MIN TEMP:  87; 6HR MAX TEMP:  90;

NEWPORT        SUNNY     86  70  58 N6        30.03F HX  90
6HR MIN TEMP:  86; 6HR MAX TEMP:  90;

WALNUT RIDGE   SUNNY     90  63  40 N5        30.01S HX  90
6HR MIN TEMP:  88; 6HR MAX TEMP:  91;

BLYTHEVILLE    SUNNY     86  70  58 N8        30.01F HX  90
6HR MIN TEMP:  86; 6HR MAX TEMP:  91;

$$

ARZ022-023-033-042-044-010100-
CENTRAL ARKANSAS

CITY           SKY/WX    TMP DP  RH WIND       PRES   REMARKS
LITTLE ROCK    MOSUNNY   91  63  39 E9        30.02S HX  92
6HR MIN TEMP:  91; 6HR MAX TEMP:  94;

N LITTLE ROCK  MOSUNNY   91  66  44 E8        30.02S HX  93
6HR MIN TEMP:  91; 6HR MAX TEMP:  97;

JACKSONVILLE   SUNNY     91  64  40 E12       30.02S HX  92
6HR MIN TEMP:  91; 6HR MAX TEMP:  94;

SEARCY         SUNNY     89  66  46 N5        30.04S HX  91
6HR MIN TEMP:  89; 6HR MAX TEMP:  94;

HOT SPRINGS    SUNNY     92  58  31 SE8       30.02F HX  91
6HR MIN TEMP:  92; 6HR MAX TEMP:  96;

RUSSELLVILLE   SUNNY     91  62  37 SE3       30.01F HX  91
6HR MIN TEMP:  90; 6HR MAX TEMP:  94;

CLINTON        FAIR      86  68  54 CALM      30.05S HX  89
$$

ARZ036-010100-
EAST ARKANSAS

CITY           SKY/WX    TMP DP  RH WIND       PRES   REMARKS
WEST MEMPHIS   SUNNY     88  67  49 N7        30.00F HX  91
6HR MIN TEMP:  88; 6HR MAX TEMP:  92;

$$

ARZ050-053-066-070-073-010100-
SOUTHWEST ARKANSAS

CITY           SKY/WX    TMP DP  RH WIND       PRES   REMARKS
ARKADELPHIA    FAIR      93  64  38 NE3       30.00F HX  94
6HR MIN TEMP:  93; 6HR MAX TEMP:  98;

CAMDEN         SUNNY     90  63  40 N6        29.99F HX  90
TEXARKANA      SUNNY     90  60  36 E5        30.00F HX  89
6HR MIN TEMP:  89; 6HR MAX TEMP:  94;

EL DORADO      LGT RAIN  91  60  35 NE7       30.00S HX  90
6HR MIN TEMP:  90; 6HR MAX TEMP:  96; 6HR PCP: TRACE;

DE QUEEN       SUNNY     91  62  37 SE3       30.00F HX  91
6HR MIN TEMP:  88; 6HR MAX TEMP:  93;

$$

ARZ056-057-069-010100-
SOUTHEAST ARKANSAS

CITY           SKY/WX    TMP DP  RH WIND       PRES   REMARKS
PINE BLUFF     SUNNY     89  64  43 N7        30.01F HX  90
6HR MIN TEMP:  89; 6HR MAX TEMP:  92;

STUTTGART      SUNNY     88  64  45 MISG      30.02S HX  89
6HR MIN TEMP:  88; 6HR MAX TEMP:  91;

MONTICELLO     SUNNY     90  66  45 VRB5      30.00F HX  92
6HR MIN TEMP:  89; 6HR MAX TEMP:  94;


$$




USA.gov is the U.S. government's official web portal to all federal, state and local government web resources and services.